SILO ALERT LOG
| Silo ID | Alert Type | Alert Message | Silo Type | Points | Depth (mm) | Strength | Temperature (°C) | Humidity (%) | Height (mm) | Volume (㎥) | Weight (t) | Flag | Time |
|---|---|---|---|---|---|---|---|---|---|---|---|---|---|
| WJWJR01 | Humidity | 습도센서 측정값이 80% 초과 | 평 | 1962 | 2026 | 2352 | 80 | 100 | 4153 | 7424 | 9170 | 15 | 2026-07-24 11:58:46.000 |
| WJWJR05 | Humidity | 습도센서 측정값이 80% 초과 | 평 | 8835 | 1593 | 2579 | 80 | 100 | 7447 | 2058 | 3757 | 15 | 2026-07-24 11:58:45.000 |
| WJWJR05 | Humidity | 습도센서 측정값이 80% 초과 | 평 | 9021 | 3307 | 8172 | 80 | 100 | 1588 | 1764 | 7788 | 15 | 2026-07-24 11:58:39.000 |
| WJWJR01 | Humidity | 습도센서 측정값이 80% 초과 | 평 | 9509 | 9865 | 4110 | 80 | 100 | 8447 | 1905 | 5389 | 15 | 2026-07-24 11:58:38.000 |
| WJWJR05 | Humidity | 습도센서 측정값이 80% 초과 | 평 | 6485 | 2963 | 2224 | 80 | 100 | 9488 | 4802 | 4839 | 15 | 2026-07-24 11:58:33.000 |
| WJWJR01 | Humidity | 습도센서 측정값이 80% 초과 | 평 | 2671 | 1367 | 5206 | 80 | 100 | 7535 | 8184 | 4136 | 15 | 2026-07-24 11:58:32.000 |
| WJWJR01 | Humidity | 습도센서 측정값이 80% 초과 | 평 | 2945 | 2376 | 8525 | 80 | 100 | 1969 | 7661 | 8803 | 15 | 2026-07-24 11:58:25.000 |
| WJWJR05 | Humidity | 습도센서 측정값이 80% 초과 | 평 | 2636 | 2293 | 6268 | 80 | 100 | 1492 | 1849 | 3584 | 15 | 2026-07-24 11:58:24.000 |
| WJWJR01 | Humidity | 습도센서 측정값이 80% 초과 | 평 | 9700 | 6465 | 2936 | 80 | 100 | 9500 | 7790 | 3716 | 15 | 2026-07-24 11:58:17.000 |
| WJWJR05 | Humidity | 습도센서 측정값이 80% 초과 | 평 | 7534 | 6368 | 6518 | 80 | 100 | 4508 | 6056 | 9017 | 15 | 2026-07-24 11:58:17.000 |
| WJWJR05 | Humidity | 습도센서 측정값이 80% 초과 | 평 | 5176 | 2061 | 6186 | 80 | 100 | 6167 | 2289 | 5631 | 15 | 2026-07-24 11:58:11.000 |
| WJWJR01 | Humidity | 습도센서 측정값이 80% 초과 | 평 | 9195 | 6519 | 5691 | 80 | 100 | 4451 | 2707 | 2466 | 15 | 2026-07-24 11:58:10.000 |
| WJWJR01 | Humidity | 습도센서 측정값이 80% 초과 | 평 | 9658 | 9583 | 5141 | 80 | 100 | 4952 | 7122 | 1716 | 15 | 2026-07-24 11:58:04.000 |
| WJWJR05 | Humidity | 습도센서 측정값이 80% 초과 | 평 | 5292 | 2475 | 2218 | 80 | 100 | 9222 | 6267 | 9242 | 15 | 2026-07-24 11:58:03.000 |
| WJWJR05 | Humidity | 습도센서 측정값이 80% 초과 | 평 | 9611 | 7647 | 5834 | 80 | 100 | 4635 | 8605 | 4636 | 15 | 2026-07-24 11:57:57.000 |
| WJWJR01 | Humidity | 습도센서 측정값이 80% 초과 | 평 | 2273 | 8581 | 9413 | 80 | 100 | 3173 | 8571 | 1929 | 15 | 2026-07-24 11:57:56.000 |
| WJWJR05 | Humidity | 습도센서 측정값이 80% 초과 | 평 | 6324 | 9815 | 7099 | 80 | 100 | 9084 | 5732 | 1380 | 15 | 2026-07-24 11:57:50.000 |
| WJWJR01 | Humidity | 습도센서 측정값이 80% 초과 | 평 | 4074 | 9693 | 1582 | 80 | 100 | 1452 | 7147 | 3358 | 15 | 2026-07-24 11:57:49.000 |
| WJWJR01 | Humidity | 습도센서 측정값이 80% 초과 | 평 | 5536 | 1642 | 3770 | 80 | 100 | 3713 | 8083 | 3147 | 15 | 2026-07-24 11:57:43.000 |
| WJWJR05 | Humidity | 습도센서 측정값이 80% 초과 | 평 | 3392 | 7105 | 8670 | 80 | 100 | 9194 | 6039 | 5908 | 15 | 2026-07-24 11:57:43.000 |
[첫 페이지] [12] [13] [14] [15] 16 [17] [18] [19] [20] [마지막 페이지]